This is the latest recevied weather packets stored in our database for station/object KA7EII-13. If no packets are shown the sender has not sent any weather packets the latest 10 day(s).
| Time | Temp. | Humidity | Pressure | Rain* | Wind** | Luminosity | Snow |
|---|---|---|---|---|---|---|---|
| 1777412372 | 12.22° C | 39% | 1108.3 hPa | 0 mm | - | 434 W/m² | - |
| 1777412067 | 11.67° C | 39% | 1108.5 hPa | 0 mm | - | 324 W/m² | - |
| 1777411761 | 12.22° C | 41% | 1108.4 hPa | 0 mm | - | 296 W/m² | - |
| 1777411456 | 12.22° C | 41% | 1108.6 hPa | 0 mm | - | 290 W/m² | - |
| 1777411150 | 12.78° C | 42% | 1108.6 hPa | 0 mm | - | 349 W/m² | - |
| 1777410850 | 11.67° C | 42% | 1108.6 hPa | 0 mm | - | 383 W/m² | - |
| 1777410544 | 11.67° C | 40% | 1108.6 hPa | 0 mm | - | 229 W/m² | - |
| 1777410244 | 12.22° C | 39% | 1108.6 hPa | 0 mm | - | 249 W/m² | - |
| 1777409938 | 12.78° C | 40% | 1108.5 hPa | 0 mm | - | 310 W/m² | - |
| 1777409634 | 12.22° C | 41% | 1108.7 hPa | 0 mm | - | 734 W/m² | - |
| 1777409330 | 11.11° C | 40% | 1108.5 hPa | 0 mm | - | 556 W/m² | - |
| 1777409025 | 10.56° C | 41% | 1108.9 hPa | 0 mm | - | 242 W/m² | - |
| 1777408722 | 10.56° C | 41% | 1108.6 hPa | 0 mm | - | 142 W/m² | - |
| 1777408419 | 10.56° C | 40% | 1108.6 hPa | 0 mm | - | 116 W/m² | - |
| 1777408118 | 10.56° C | 41% | 1108.4 hPa | 0 mm | - | 124 W/m² | - |
| 1777407814 | 11.11° C | 40% | 1108.5 hPa | 0 mm | - | 116 W/m² | - |
| 1777407511 | 11.11° C | 39% | 1108.5 hPa | 0 mm | - | 111 W/m² | - |
| 1777407205 | 11.11° C | 39% | 1108.4 hPa | 0 mm | - | 154 W/m² | - |
| 1777406900 | 11.11° C | 38% | 1108.4 hPa | 0 mm | - | 242 W/m² | - |
| 1777406595 | 11.11° C | 39% | 1108.4 hPa | 0 mm | - | 331 W/m² | - |
| 1777406292 | 11.11° C | 40% | 1108.5 hPa | 0 mm | - | 294 W/m² | - |
| 1777405990 | 10.56° C | 42% | 1108.4 hPa | 0 mm | - | 159 W/m² | - |
| 1777405687 | 10.56° C | 40% | 1108.4 hPa | 0 mm | - | 134 W/m² | - |
| 1777405384 | 10.56° C | 40% | 1108.5 hPa | 0 mm | - | 131 W/m² | - |
| 1777405080 | 11.11° C | 40% | 1108.3 hPa | 0 mm | - | 130 W/m² | - |
* Rain latest hour (hover to see other rain measurements)
** Current wind speed in m/s (hover to see current wind gust speed)